Kremmling, CO

10:26 PM MST on February 23, 2017 (GMT -0700)
Kremmling

Weather History for K20V - June, 2013

Change the Weather History Date:

Wednesday, June 12, 2013

  Actual Average Record
Temperature  
Mean Temperature 61 °F -  
Max Temperature 87 °F - 91 °F (2006)
Min Temperature 35 °F - 23 °F (2008)
Degree Days  
Heating Degree Days 4    
Month to date heating degree days  
Cooling Degree Days 0    
Month to date cooling degree days  
Growing Degree Days 11 (Base 50)    
Moisture  
Dew Point 23 °F    
Average Humidity 30    
Maximum Humidity 81    
Minimum Humidity 5    
Precipitation  
Precipitation 0.00 in - 0.41 in (2007)
Sea Level Pressure  
Sea Level Pressure 30.29 in    
Wind  
Wind Speed 3 mph (SW)    
Max Wind Speed 21 mph    
Max Gust Speed 29 mph    
Visibility 10 miles    
Events      
T = Trace of Precipitation, MM = Missing Value Source: NWS Daily Summary

Daily Weather History Graph

Daily Weather History Graph

Search for Another Location

Airport or City:

Trip Planner

Search our weather history database for the weather conditions in past years. The results will help you decide how hot, cold, wet, or windy it might be!

Date:

Astronomy

Jun. 12, 2013 Rise Set
Actual Time 5:35 AM MDT 8:35 PM MDT
Civil Twilight 5:03 AM MDT 9:07 PM MDT
Nautical Twilight 4:21 AM MDT 9:49 PM MDT
Astronomical Twilight 3:33 AM MDT 10:37 PM MDT
Moon 9:17 AM MDT (6/12) 11:12 PM MDT (6/12)
Length of Visible Light 16h 04m
Length of Day
14h 59m
Waxing Crescent, 14% of the Moon is Illuminated
Jun 12
Waxing Crescent
Jun 16
First Quarter
Jun 23
Full
Jun 29
Last Quarter
Jul 8
New

Hourly Weather History & Observations

Time (MDT) Temp. Dew Point Humidity Pressure Visibility Wind Dir Wind Speed Gust Speed Precip Events Conditions
12:16 AM 53.6 °F 26.6 °F 35% 30.28 in 10.0 mi Calm Calm - N/A   Clear
12:36 AM 51.8 °F 26.6 °F 38% 30.28 in 10.0 mi West 4.6 mph - N/A   Clear
12:56 AM 50.0 °F 26.6 °F 40% 30.29 in 10.0 mi Calm Calm - N/A   Clear
1:16 AM 50.0 °F 28.4 °F 43% 30.29 in 10.0 mi Calm Calm - N/A   Clear
1:35 AM 46.4 °F 26.6 °F 46% 30.30 in 10.0 mi Calm Calm - N/A   Clear
1:56 AM 46.4 °F 28.4 °F 50% 30.29 in 10.0 mi Calm Calm - N/A   Clear
2:15 AM 44.6 °F 28.4 °F 53% 30.30 in 10.0 mi Calm Calm - N/A   Clear
2:35 AM 42.8 °F 26.6 °F 53% 30.31 in 10.0 mi Calm Calm - N/A   Clear
2:56 AM 41.0 °F 26.6 °F 57% 30.31 in 10.0 mi Calm Calm - N/A   Clear
3:16 AM 41.0 °F 26.6 °F 57% 30.31 in 10.0 mi Calm Calm - N/A   Clear
3:36 AM 41.0 °F 28.4 °F 61% 30.32 in 10.0 mi Calm Calm - N/A   Clear
3:55 AM 41.0 °F 26.6 °F 57% 30.32 in 10.0 mi Calm Calm - N/A   Clear
4:16 AM 41.0 °F 28.4 °F 61% 30.32 in 10.0 mi Calm Calm - N/A   Clear
4:36 AM 37.4 °F 30.2 °F 75% 30.33 in 10.0 mi Calm Calm - N/A   Clear
4:56 AM 37.4 °F 28.4 °F 70% 30.33 in 10.0 mi Calm Calm - N/A   Clear
5:16 AM 37.4 °F 28.4 °F 70% 30.34 in 10.0 mi Calm Calm - N/A   Clear
5:36 AM 35.6 °F 26.6 °F 70% 30.35 in 10.0 mi Calm Calm - N/A   Clear
5:55 AM 35.6 °F 26.6 °F 70% 30.35 in 10.0 mi Calm Calm - N/A   Clear
6:16 AM 35.6 °F 30.2 °F 81% 30.36 in 10.0 mi Calm Calm - N/A   Clear
6:36 AM 37.4 °F 28.4 °F 70% 30.37 in 10.0 mi Calm Calm - N/A   Clear
6:56 AM 41.0 °F 28.4 °F 61% 30.37 in 10.0 mi Calm Calm - N/A   Clear
7:16 AM 44.6 °F 30.2 °F 57% 30.37 in 10.0 mi Calm Calm - N/A   Clear
7:36 AM 50.0 °F 32.0 °F 50% 30.37 in 10.0 mi Calm Calm - N/A   Clear
7:56 AM 50.0 °F 30.2 °F 47% 30.36 in 10.0 mi Calm Calm - N/A   Clear
8:16 AM 51.8 °F 30.2 °F 44% 30.36 in 10.0 mi Calm Calm - N/A   Clear
8:35 AM 53.6 °F 28.4 °F 38% 30.36 in 10.0 mi Calm Calm - N/A   Clear
8:56 AM 55.4 °F 26.6 °F 33% 30.35 in 10.0 mi Calm Calm - N/A   Clear
9:16 AM 59.0 °F 26.6 °F 29% 30.35 in 10.0 mi Calm Calm - N/A   Clear
9:36 AM 59.0 °F 26.6 °F 29% 30.34 in 10.0 mi Calm Calm - N/A   Clear
9:56 AM 62.6 °F 24.8 °F 24% 30.33 in 10.0 mi West 3.5 mph - N/A   Clear
10:15 AM 64.4 °F 24.8 °F 22% 30.33 in 10.0 mi Calm Calm - N/A   Clear
10:36 AM 64.4 °F 26.6 °F 24% 30.32 in 10.0 mi Calm Calm - N/A   Clear
10:56 AM 69.8 °F 28.4 °F 21% 30.32 in 10.0 mi Calm Calm - N/A   Clear
11:16 AM 69.8 °F 26.6 °F 20% 30.31 in 10.0 mi Calm Calm - N/A   Clear
11:35 AM 73.4 °F 26.6 °F 18% 30.30 in 10.0 mi Calm Calm - N/A   Clear
11:56 AM 77.0 °F 23.0 °F 13% 30.30 in 10.0 mi SE 5.8 mph - N/A   Clear
12:16 PM 78.8 °F 21.2 °F 12% 30.29 in 10.0 mi SE 3.5 mph - N/A   Clear
12:36 PM 80.6 °F 17.6 °F 10% 30.28 in 10.0 mi SSW 8.1 mph - N/A   Clear
12:56 PM 82.4 °F 14.0 °F 8% 30.28 in 10.0 mi WSW 11.5 mph 20.7 mph N/A   Clear
1:16 PM 82.4 °F 12.2 °F 7% 30.27 in 10.0 mi SW 17.3 mph 24.2 mph N/A   Clear
1:36 PM 86.0 °F 14.0 °F 7% 30.27 in 10.0 mi WSW 13.8 mph 18.4 mph N/A   Clear
1:56 PM 86.0 °F 12.2 °F 6% 30.26 in 10.0 mi WSW 10.4 mph 20.7 mph N/A   Clear
2:16 PM 84.2 °F 12.2 °F 7% 30.25 in 10.0 mi South 10.4 mph 27.6 mph N/A   Clear
2:36 PM 86.0 °F 12.2 °F 6% 30.25 in 10.0 mi SW 20.7 mph 28.8 mph N/A   Clear
2:55 PM 87.8 °F 12.2 °F 6% 30.24 in 10.0 mi SW 10.4 mph 21.9 mph N/A   Clear
3:16 PM 87.8 °F 14.0 °F 6% 30.24 in 10.0 mi SSW 18.4 mph 21.9 mph N/A   Clear
3:36 PM 87.8 °F 12.2 °F 6% 30.24 in 10.0 mi WSW 8.1 mph - N/A   Clear
3:56 PM 87.8 °F 14.0 °F 6% 30.24 in 10.0 mi WSW 11.5 mph 19.6 mph N/A   Clear
4:16 PM 87.8 °F 12.2 °F 6% 30.23 in 10.0 mi SW 11.5 mph 16.1 mph N/A   Clear
4:36 PM 86.0 °F 10.4 °F 6% 30.22 in 10.0 mi SW 6.9 mph 23.0 mph N/A   Clear
4:56 PM 87.8 °F 12.2 °F 6% 30.22 in 10.0 mi WSW 13.8 mph 19.6 mph N/A   Clear
5:16 PM 86.0 °F 8.6 °F 5% 30.22 in 10.0 mi SSW 18.4 mph 27.6 mph N/A   Clear
5:35 PM 80.6 °F 10.4 °F 7% 30.22 in 10.0 mi SW 11.5 mph 18.4 mph N/A   Clear
5:56 PM 80.6 °F 10.4 °F 7% 30.22 in 10.0 mi SW 12.7 mph 20.7 mph N/A   Clear
6:16 PM 80.6 °F 14.0 °F 8% 30.22 in 10.0 mi SW 12.7 mph 17.3 mph N/A   Clear
6:36 PM 78.8 °F 12.2 °F 8% 30.22 in 10.0 mi WSW 11.5 mph 18.4 mph N/A   Clear
6:56 PM 78.8 °F 17.6 °F 10% 30.22 in 10.0 mi WSW 6.9 mph - N/A   Clear
7:15 PM 77.0 °F 17.6 °F 11% 30.22 in 10.0 mi WSW 8.1 mph - N/A   Clear
7:35 PM 77.0 °F 21.2 °F 12% 30.24 in 10.0 mi WSW 6.9 mph - N/A   Clear
7:56 PM 73.4 °F 23.0 °F 15% 30.24 in 10.0 mi WSW 3.5 mph - N/A   Clear
8:15 PM 73.4 °F 23.0 °F 15% 30.24 in 10.0 mi SW 3.5 mph - N/A   Clear
8:36 PM 71.6 °F 23.0 °F 16% 30.24 in 10.0 mi Calm Calm - N/A   Clear
8:56 PM 69.8 °F 21.2 °F 16% 30.25 in 10.0 mi Calm Calm - N/A   Clear
9:16 PM 66.2 °F 26.6 °F 23% 30.26 in 10.0 mi NNW 4.6 mph - N/A   Clear
9:35 PM 66.2 °F 24.8 °F 21% 30.26 in 10.0 mi Calm Calm - N/A   Clear
9:56 PM 62.6 °F 21.2 °F 20% 30.27 in 10.0 mi NE 4.6 mph - N/A   Clear
10:16 PM 68.0 °F 21.2 °F 17% 30.27 in 10.0 mi Calm Calm - N/A   Clear
10:36 PM 60.8 °F 26.6 °F 27% 30.28 in 10.0 mi Calm Calm - N/A   Clear
10:56 PM 60.8 °F 26.6 °F 27% 30.28 in 10.0 mi Calm Calm - N/A   Clear
11:16 PM 57.2 °F 26.6 °F 31% 30.28 in 10.0 mi Calm Calm - N/A   Clear
11:36 PM 59.0 °F 26.6 °F 29% 30.27 in 10.0 mi Calm Calm - N/A   Clear
11:56 PM 57.2 °F 26.6 °F 31% 30.27 in 10.0 mi Calm Calm - N/A   Clear